Weather in Zalău

Romania     47°11′28″N   23°03′49″E
temp.,
°C
wind,
m/s
gust,
m/s
humid.,
%
clouds,
%
prec.,
mm/h
press.,
hPa
HPBL,
m
27 october, wed
wed2700:00+5wsw11575 0.0 102610
03:00+4wsw11615 0.0 102710
06:00+3sw1163100 0.0 102710
09:00+4nw11614 0.0 102810
12:00+10wnw11427 0.0 1028415
15:00+13nnw223751 0.0 1027831
18:00+9nnw114899 0.0 102710
21:00+7sse005737 0.0 102810
28 october, thu
thu2800:00+6sse1161100 0.0 102910
03:00+5se11646 0.0 102910
06:00+4sse226638 0.0 102810
09:00+5se226349 0.0 102919
12:00+12e23416 0.0 1028403
15:00+15ese233470 0.0 1026642
18:00+11ese224699 0.0 102512
21:00+8ese225274 0.0 102611
29 october, fri
fri2900:00+7se225447 0.0 102613
03:00+6se225628 0.0 102613
06:00+5se225698 0.0 102512
09:00+6se225673 0.0 102528
12:00+14se583828 0.0 1024486
15:00+18se56326 0.0 1022742
18:00+13se22475 0.0 102219
21:00+10sse22550 0.0 102210
30 october, sat
sat3000:00+9se21600 0.0 102310
03:00+7se22650 0.0 102310
06:00+6se22700 0.0 102410
09:00+7se22715 0.0 102520
12:00+14ese23473 0.0 1024352
15:00+17ese22385 0.0 1023614
18:00+13ese22511 0.0 102310
21:00+10sse11610 0.0 102410
31 october, sun
sun3100:00+9se22660 0.0 102410
03:00+7se22710 0.0 102311
05:00+6se22750 0.0 102217
08:00+6se22750 0.0 102228
11:00+14se34505 0.0 1020351
14:00+17se334050 0.0 1017539
17:00+13ese3350100 0.0 101726
20:00+10sse1159100 0.0 101810